iso_date,epoch_date,Year,Hour,Min,DOY,POS_DOY,Lat,Lon,BP,Ts,Ta,has_bp,has_ts,has_ta,BuoyID,Buoy_Type,Buoy_Owner,Logistics,Hemisphere
2016-05-24T16:59:31Z,1464109171,2016,17,0,145.708,145.625,72.4538,-145.4,-999.00,-1.7,-999.0,no,yes,no,300234062442620,CALIB,YorkU,unknown,North
2016-05-24T18:00:00Z,1464112800,2016,18,0,145.75,145.75,72.4646,-145.4578,-999.00,-1.0,-999.0,no,yes,no,300234062442620,CALIB,YorkU,unknown,North
2016-05-24T19:00:28Z,1464116429,2016,19,0,145.792,145.75,72.4646,-145.4578,-999.00,-0.4,-999.0,no,yes,no,300234062442620,CALIB,YorkU,unknown,North
2016-05-24T19:59:31Z,1464119971,2016,20,0,145.833,145.75,72.4646,-145.4578,-999.00,0.1,-999.0,no,yes,no,300234062442620,CALIB,YorkU,unknown,North
2016-05-24T21:00:00Z,1464123600,2016,21,0,145.875,145.875,72.4734,-145.5068,-999.00,0.7,-999.0,no,yes,no,300234062442620,CALIB,YorkU,unknown,North
2016-05-24T22:00:28Z,1464127229,2016,22,0,145.917,145.875,72.4734,-145.5068,-999.00,1.0,-999.0,no,yes,no,300234062442620,CALIB,YorkU,unknown,North
2016-05-24T22:59:31Z,1464130771,2016,23,0,145.958,145.875,72.4734,-145.5068,-999.00,1.1,-999.0,no,yes,no,300234062442620,CALIB,YorkU,unknown,North
2016-05-25T00:00:00Z,1464134400,2016,0,0,146.0,146.0,72.4814,-145.5544,-999.00,1.5,-999.0,no,yes,no,300234062442620,CALIB,YorkU,unknown,North
2016-05-25T01:00:28Z,1464138029,2016,1,0,146.042,146.0,72.4814,-145.5544,-999.00,1.6,-999.0,no,yes,no,300234062442620,CALIB,YorkU,unknown,North
2016-05-25T01:59:31Z,1464141571,2016,2,0,146.083,146.0,72.4814,-145.5544,-999.00,1.5,-999.0,no,yes,no,300234062442620,CALIB,YorkU,unknown,North
2016-05-25T03:00:00Z,1464145200,2016,3,0,146.125,146.125,72.4892,-145.602,-999.00,1.0,-999.0,no,yes,no,300234062442620,CALIB,YorkU,unknown,North
2016-05-25T04:00:28Z,1464148829,2016,4,0,146.167,146.125,72.4892,-145.602,-999.00,0.5,-999.0,no,yes,no,300234062442620,CALIB,YorkU,unknown,North
2016-05-25T04:59:31Z,1464152371,2016,5,0,146.208,146.125,72.4892,-145.602,-999.00,0.0,-999.0,no,yes,no,300234062442620,CALIB,YorkU,unknown,North
2016-05-25T06:00:00Z,1464156000,2016,6,0,146.25,146.25,72.496,-145.6466,-999.00,-0.5,-999.0,no,yes,no,300234062442620,CALIB,YorkU,unknown,North
2016-05-25T07:00:28Z,1464159629,2016,7,0,146.292,146.25,72.496,-145.6466,-999.00,-1.0,-999.0,no,yes,no,300234062442620,CALIB,YorkU,unknown,North
2016-05-25T07:59:31Z,1464163171,2016,8,0,146.333,146.25,72.496,-145.6466,-999.00,-1.3,-999.0,no,yes,no,300234062442620,CALIB,YorkU,unknown,North
2016-05-25T09:00:00Z,1464166800,2016,9,0,146.375,146.375,72.5006,-145.6876,-999.00,-1.5,-999.0,no,yes,no,300234062442620,CALIB,YorkU,unknown,North
2016-05-25T10:00:28Z,1464170429,2016,10,0,146.417,146.375,72.5006,-145.6876,-999.00,-1.6,-999.0,no,yes,no,300234062442620,CALIB,YorkU,unknown,North
2016-05-25T10:59:31Z,1464173971,2016,11,0,146.458,146.375,72.5006,-145.6876,-999.00,-1.7,-999.0,no,yes,no,300234062442620,CALIB,YorkU,unknown,North
2016-05-25T12:00:00Z,1464177600,2016,12,0,146.5,146.5,72.504,-145.7268,-999.00,-1.8,-999.0,no,yes,no,300234062442620,CALIB,YorkU,unknown,North
2016-05-25T13:00:28Z,1464181229,2016,13,0,146.542,146.5,72.504,-145.7268,-999.00,-1.7,-999.0,no,yes,no,300234062442620,CALIB,YorkU,unknown,North
2016-05-25T13:59:31Z,1464184771,2016,14,0,146.583,146.5,72.504,-145.7268,-999.00,-1.6,-999.0,no,yes,no,300234062442620,CALIB,YorkU,unknown,North
2016-05-25T15:00:00Z,1464188400,2016,15,0,146.625,146.625,72.5068,-145.7708,-999.00,-1.4,-999.0,no,yes,no,300234062442620,CALIB,YorkU,unknown,North
2016-05-25T16:00:28Z,1464192029,2016,16,0,146.667,146.625,72.5068,-145.7708,-999.00,-0.9,-999.0,no,yes,no,300234062442620,CALIB,YorkU,unknown,North
2016-05-25T16:59:31Z,1464195571,2016,17,0,146.708,146.625,72.5068,-145.7708,-999.00,-0.3,-999.0,no,yes,no,300234062442620,CALIB,YorkU,unknown,North
2016-05-25T18:00:00Z,1464199200,2016,18,0,146.75,146.75,72.5098,-145.815,-999.00,0.4,-999.0,no,yes,no,300234062442620,CALIB,YorkU,unknown,North
2016-05-25T19:00:28Z,1464202829,2016,19,0,146.792,146.75,72.5098,-145.815,-999.00,1.4,-999.0,no,yes,no,300234062442620,CALIB,YorkU,unknown,North
2016-05-25T19:59:31Z,1464206371,2016,20,0,146.833,146.75,72.5098,-145.815,-999.00,2.1,-999.0,no,yes,no,300234062442620,CALIB,YorkU,unknown,North
2016-05-25T21:00:00Z,1464210000,2016,21,0,146.875,146.875,72.5112,-145.852,-999.00,2.9,-999.0,no,yes,no,300234062442620,CALIB,YorkU,unknown,North
2016-05-25T22:00:28Z,1464213629,2016,22,0,146.917,146.875,72.5112,-145.852,-999.00,4.5,-999.0,no,yes,no,300234062442620,CALIB,YorkU,unknown,North
2016-05-25T22:59:31Z,1464217171,2016,23,0,146.958,146.875,72.5112,-145.852,-999.00,5.1,-999.0,no,yes,no,300234062442620,CALIB,YorkU,unknown,North
2016-05-26T00:00:00Z,1464220800,2016,0,0,147.0,147.0,72.5118,-145.8866,-999.00,5.1,-999.0,no,yes,no,300234062442620,CALIB,YorkU,unknown,North
2016-05-26T01:00:28Z,1464224429,2016,1,0,147.042,147.0,72.5118,-145.8866,-999.00,4.4,-999.0,no,yes,no,300234062442620,CALIB,YorkU,unknown,North
2016-05-26T01:59:31Z,1464227971,2016,2,0,147.083,147.0,72.5118,-145.8866,-999.00,3.6,-999.0,no,yes,no,300234062442620,CALIB,YorkU,unknown,North
2016-05-26T03:00:00Z,1464231600,2016,3,0,147.125,147.125,72.5112,-145.9244,-999.00,2.9,-999.0,no,yes,no,300234062442620,CALIB,YorkU,unknown,North
2016-05-26T04:00:28Z,1464235229,2016,4,0,147.167,147.125,72.5112,-145.9244,-999.00,2.3,-999.0,no,yes,no,300234062442620,CALIB,YorkU,unknown,North
2016-05-26T04:59:31Z,1464238771,2016,5,0,147.208,147.125,72.5112,-145.9244,-999.00,1.5,-999.0,no,yes,no,300234062442620,CALIB,YorkU,unknown,North
2016-05-26T06:00:00Z,1464242400,2016,6,0,147.25,147.25,72.5098,-145.9632,-999.00,0.9,-999.0,no,yes,no,300234062442620,CALIB,YorkU,unknown,North
2016-05-26T07:00:28Z,1464246029,2016,7,0,147.292,147.25,72.5098,-145.9632,-999.00,0.0,-999.0,no,yes,no,300234062442620,CALIB,YorkU,unknown,North
2016-05-26T07:59:31Z,1464249571,2016,8,0,147.333,147.25,72.5098,-145.9632,-999.00,-0.7,-999.0,no,yes,no,300234062442620,CALIB,YorkU,unknown,North
2016-05-26T09:00:00Z,1464253200,2016,9,0,147.375,147.375,72.5088,-145.9994,-999.00,-1.2,-999.0,no,yes,no,300234062442620,CALIB,YorkU,unknown,North
2016-05-26T10:00:28Z,1464256829,2016,10,0,147.417,147.375,72.5088,-145.9994,-999.00,-1.6,-999.0,no,yes,no,300234062442620,CALIB,YorkU,unknown,North
2016-05-26T10:59:31Z,1464260371,2016,11,0,147.458,147.375,72.5088,-145.9994,-999.00,-1.8,-999.0,no,yes,no,300234062442620,CALIB,YorkU,unknown,North
2016-05-26T12:00:00Z,1464264000,2016,12,0,147.5,147.5,72.5078,-146.0326,-999.00,-2.0,-999.0,no,yes,no,300234062442620,CALIB,YorkU,unknown,North
2016-05-26T13:00:28Z,1464267629,2016,13,0,147.542,147.5,72.5078,-146.0326,-999.00,-2.2,-999.0,no,yes,no,300234062442620,CALIB,YorkU,unknown,North
2016-05-26T13:59:31Z,1464271171,2016,14,0,147.583,147.5,72.5078,-146.0326,-999.00,-2.1,-999.0,no,yes,no,300234062442620,CALIB,YorkU,unknown,North
2016-05-26T15:00:00Z,1464274800,2016,15,0,147.625,147.625,72.5068,-146.069,-999.00,-1.9,-999.0,no,yes,no,300234062442620,CALIB,YorkU,unknown,North
2016-05-26T16:00:28Z,1464278429,2016,16,0,147.667,147.625,72.5068,-146.069,-999.00,-1.5,-999.0,no,yes,no,300234062442620,CALIB,YorkU,unknown,North
2016-05-26T16:59:31Z,1464281971,2016,17,0,147.708,147.625,72.5068,-146.069,-999.00,-0.6,-999.0,no,yes,no,300234062442620,CALIB,YorkU,unknown,North
2016-05-26T18:00:00Z,1464285600,2016,18,0,147.75,147.75,72.5064,-146.109,-999.00,0.4,-999.0,no,yes,no,300234062442620,CALIB,YorkU,unknown,North
2016-05-26T19:00:28Z,1464289229,2016,19,0,147.792,147.75,72.5064,-146.109,-999.00,1.1,-999.0,no,yes,no,300234062442620,CALIB,YorkU,unknown,North
2016-05-26T19:59:31Z,1464292771,2016,20,0,147.833,147.75,72.5064,-146.109,-999.00,2.3,-999.0,no,yes,no,300234062442620,CALIB,YorkU,unknown,North
2016-05-26T21:00:00Z,1464296400,2016,21,0,147.875,147.875,72.5056,-146.1476,-999.00,3.4,-999.0,no,yes,no,300234062442620,CALIB,YorkU,unknown,North
2016-05-26T22:00:28Z,1464300029,2016,22,0,147.917,147.875,72.5056,-146.1476,-999.00,4.6,-999.0,no,yes,no,300234062442620,CALIB,YorkU,unknown,North
2016-05-26T22:59:31Z,1464303571,2016,23,0,147.958,147.875,72.5056,-146.1476,-999.00,5.2,-999.0,no,yes,no,300234062442620,CALIB,YorkU,unknown,North
2016-05-27T00:00:00Z,1464307200,2016,0,0,148.0,148.0,72.5052,-146.1828,-999.00,5.1,-999.0,no,yes,no,300234062442620,CALIB,YorkU,unknown,North
2016-05-27T01:00:28Z,1464310829,2016,1,0,148.042,148.0,72.5052,-146.1828,-999.00,4.8,-999.0,no,yes,no,300234062442620,CALIB,YorkU,unknown,North
2016-05-27T01:59:31Z,1464314371,2016,2,0,148.083,148.0,72.5052,-146.1828,-999.00,4.3,-999.0,no,yes,no,300234062442620,CALIB,YorkU,unknown,North
2016-05-27T03:00:00Z,1464318000,2016,3,0,148.125,148.125,72.5042,-146.2156,-999.00,3.2,-999.0,no,yes,no,300234062442620,CALIB,YorkU,unknown,North
2016-05-27T04:00:28Z,1464321629,2016,4,0,148.167,148.125,72.5042,-146.2156,-999.00,1.8,-999.0,no,yes,no,300234062442620,CALIB,YorkU,unknown,North
2016-05-27T04:59:31Z,1464325171,2016,5,0,148.208,148.125,72.5042,-146.2156,-999.00,0.8,-999.0,no,yes,no,300234062442620,CALIB,YorkU,unknown,North
2016-05-27T06:00:00Z,1464328800,2016,6,0,148.25,148.25,72.5028,-146.2522,-999.00,-0.1,-999.0,no,yes,no,300234062442620,CALIB,YorkU,unknown,North
2016-05-27T07:00:28Z,1464332429,2016,7,0,148.292,148.25,72.5028,-146.2522,-999.00,-0.8,-999.0,no,yes,no,300234062442620,CALIB,YorkU,unknown,North
2016-05-27T07:59:31Z,1464335971,2016,8,0,148.333,148.25,72.5028,-146.2522,-999.00,-1.5,-999.0,no,yes,no,300234062442620,CALIB,YorkU,unknown,North
2016-05-27T09:00:00Z,1464339600,2016,9,0,148.375,148.375,72.5028,-146.2904,-999.00,-2.1,-999.0,no,yes,no,300234062442620,CALIB,YorkU,unknown,North
2016-05-27T10:00:28Z,1464343229,2016,10,0,148.417,148.375,72.5028,-146.2904,-999.00,-2.6,-999.0,no,yes,no,300234062442620,CALIB,YorkU,unknown,North
2016-05-27T10:59:31Z,1464346771,2016,11,0,148.458,148.375,72.5028,-146.2904,-999.00,-2.8,-999.0,no,yes,no,300234062442620,CALIB,YorkU,unknown,North
2016-05-27T12:00:00Z,1464350400,2016,12,0,148.5,148.5,72.5028,-146.3238,-999.00,-3.2,-999.0,no,yes,no,300234062442620,CALIB,YorkU,unknown,North
2016-05-27T13:00:28Z,1464354029,2016,13,0,148.542,148.5,72.5028,-146.3238,-999.00,-4.1,-999.0,no,yes,no,300234062442620,CALIB,YorkU,unknown,North
2016-05-27T13:59:31Z,1464357571,2016,14,0,148.583,148.5,72.5028,-146.3238,-999.00,-3.6,-999.0,no,yes,no,300234062442620,CALIB,YorkU,unknown,North
2016-05-27T15:00:00Z,1464361200,2016,15,0,148.625,148.625,72.5016,-146.356,-999.00,-2.6,-999.0,no,yes,no,300234062442620,CALIB,YorkU,unknown,North
2016-05-27T16:00:28Z,1464364829,2016,16,0,148.667,148.625,72.5016,-146.356,-999.00,-1.8,-999.0,no,yes,no,300234062442620,CALIB,YorkU,unknown,North
2016-05-27T16:59:31Z,1464368371,2016,17,0,148.708,148.625,72.5016,-146.356,-999.00,-0.8,-999.0,no,yes,no,300234062442620,CALIB,YorkU,unknown,North
2016-05-27T18:00:00Z,1464372000,2016,18,0,148.75,148.75,72.5,-146.3954,-999.00,0.1,-999.0,no,yes,no,300234062442620,CALIB,YorkU,unknown,North
2016-05-27T19:00:28Z,1464375629,2016,19,0,148.792,148.75,72.5,-146.3954,-999.00,1.3,-999.0,no,yes,no,300234062442620,CALIB,YorkU,unknown,North
2016-05-27T19:59:31Z,1464379171,2016,20,0,148.833,148.75,72.5,-146.3954,-999.00,3.1,-999.0,no,yes,no,300234062442620,CALIB,YorkU,unknown,North
2016-05-27T21:00:00Z,1464382800,2016,21,0,148.875,148.875,72.4998,-146.4396,-999.00,5.2,-999.0,no,yes,no,300234062442620,CALIB,YorkU,unknown,North
2016-05-27T22:00:28Z,1464386429,2016,22,0,148.917,148.875,72.4998,-146.4396,-999.00,7.0,-999.0,no,yes,no,300234062442620,CALIB,YorkU,unknown,North
2016-05-27T22:59:31Z,1464389971,2016,23,0,148.958,148.875,72.4998,-146.4396,-999.00,7.7,-999.0,no,yes,no,300234062442620,CALIB,YorkU,unknown,North
2016-05-28T00:00:00Z,1464393600,2016,0,0,149.0,149.0,72.4988,-146.4764,-999.00,8.5,-999.0,no,yes,no,300234062442620,CALIB,YorkU,unknown,North
2016-05-28T01:00:28Z,1464397229,2016,1,0,149.042,149.0,72.4988,-146.4764,-999.00,8.9,-999.0,no,yes,no,300234062442620,CALIB,YorkU,unknown,North
2016-05-28T01:59:31Z,1464400771,2016,2,0,149.083,149.0,72.4988,-146.4764,-999.00,7.4,-999.0,no,yes,no,300234062442620,CALIB,YorkU,unknown,North
2016-05-28T03:00:00Z,1464404400,2016,3,0,149.125,149.125,72.4968,-146.5114,-999.00,6.9,-999.0,no,yes,no,300234062442620,CALIB,YorkU,unknown,North
2016-05-28T04:00:28Z,1464408029,2016,4,0,149.167,149.125,72.4968,-146.5114,-999.00,4.7,-999.0,no,yes,no,300234062442620,CALIB,YorkU,unknown,North
2016-05-28T04:59:31Z,1464411571,2016,5,0,149.208,149.125,72.4968,-146.5114,-999.00,3.8,-999.0,no,yes,no,300234062442620,CALIB,YorkU,unknown,North
2016-05-28T06:00:00Z,1464415200,2016,6,0,149.25,149.25,72.4948,-146.5526,-999.00,0.9,-999.0,no,yes,no,300234062442620,CALIB,YorkU,unknown,North
2016-05-28T07:00:28Z,1464418829,2016,7,0,149.292,149.25,72.4948,-146.5526,-999.00,-1.5,-999.0,no,yes,no,300234062442620,CALIB,YorkU,unknown,North
2016-05-28T07:59:31Z,1464422371,2016,8,0,149.333,149.25,72.4948,-146.5526,-999.00,-2.9,-999.0,no,yes,no,300234062442620,CALIB,YorkU,unknown,North
2016-05-28T09:00:00Z,1464426000,2016,9,0,149.375,149.375,72.4942,-146.5952,-999.00,-4.1,-999.0,no,yes,no,300234062442620,CALIB,YorkU,unknown,North
2016-05-28T10:00:28Z,1464429629,2016,10,0,149.417,149.375,72.4942,-146.5952,-999.00,-4.7,-999.0,no,yes,no,300234062442620,CALIB,YorkU,unknown,North
2016-05-28T10:59:31Z,1464433171,2016,11,0,149.458,149.375,72.4942,-146.5952,-999.00,-4.2,-999.0,no,yes,no,300234062442620,CALIB,YorkU,unknown,North
2016-05-28T12:00:00Z,1464436800,2016,12,0,149.5,149.5,72.4944,-146.6322,-999.00,-4.3,-999.0,no,yes,no,300234062442620,CALIB,YorkU,unknown,North
2016-05-28T13:00:28Z,1464440429,2016,13,0,149.542,149.5,72.4944,-146.6322,-999.00,-4.1,-999.0,no,yes,no,300234062442620,CALIB,YorkU,unknown,North
2016-05-28T13:59:31Z,1464443971,2016,14,0,149.583,149.5,72.4944,-146.6322,-999.00,-4.0,-999.0,no,yes,no,300234062442620,CALIB,YorkU,unknown,North
2016-05-28T15:00:00Z,1464447600,2016,15,0,149.625,149.625,72.4938,-146.672,-999.00,-3.9,-999.0,no,yes,no,300234062442620,CALIB,YorkU,unknown,North
2016-05-28T16:00:28Z,1464451229,2016,16,0,149.667,149.625,72.4938,-146.672,-999.00,-2.9,-999.0,no,yes,no,300234062442620,CALIB,YorkU,unknown,North
2016-05-28T16:59:31Z,1464454771,2016,17,0,149.708,149.625,72.4938,-146.672,-999.00,-2.6,-999.0,no,yes,no,300234062442620,CALIB,YorkU,unknown,North
2016-05-28T18:00:00Z,1464458400,2016,18,0,149.75,149.75,72.4928,-146.7206,-999.00,-1.5,-999.0,no,yes,no,300234062442620,CALIB,YorkU,unknown,North
2016-05-28T19:00:28Z,1464462029,2016,19,0,149.792,149.75,72.4928,-146.7206,-999.00,-0.3,-999.0,no,yes,no,300234062442620,CALIB,YorkU,unknown,North
2016-05-28T19:59:31Z,1464465571,2016,20,0,149.833,149.75,72.4928,-146.7206,-999.00,1.3,-999.0,no,yes,no,300234062442620,CALIB,YorkU,unknown,North
2016-05-28T21:00:00Z,1464469200,2016,21,0,149.875,149.875,72.4938,-146.7738,-999.00,3.3,-999.0,no,yes,no,300234062442620,CALIB,YorkU,unknown,North
2016-05-28T22:00:28Z,1464472829,2016,22,0,149.917,149.875,72.4938,-146.7738,-999.00,5.0,-999.0,no,yes,no,300234062442620,CALIB,YorkU,unknown,North
2016-05-28T22:59:31Z,1464476371,2016,23,0,149.958,149.875,72.4938,-146.7738,-999.00,6.1,-999.0,no,yes,no,300234062442620,CALIB,YorkU,unknown,North
2016-05-29T00:00:00Z,1464480000,2016,0,0,150.0,150.0,72.497,-146.8172,-999.00,6.5,-999.0,no,yes,no,300234062442620,CALIB,YorkU,unknown,North
2016-05-29T01:00:28Z,1464483629,2016,1,0,150.042,150.0,72.497,-146.8172,-999.00,6.9,-999.0,no,yes,no,300234062442620,CALIB,YorkU,unknown,North
2016-05-29T01:59:31Z,1464487171,2016,2,0,150.083,150.0,72.497,-146.8172,-999.00,5.5,-999.0,no,yes,no,300234062442620,CALIB,YorkU,unknown,North
2016-05-29T03:00:00Z,1464490800,2016,3,0,150.125,150.125,72.4992,-146.8576,-999.00,4.1,-999.0,no,yes,no,300234062442620,CALIB,YorkU,unknown,North
2016-05-29T04:00:28Z,1464494429,2016,4,0,150.167,150.125,72.4992,-146.8576,-999.00,2.7,-999.0,no,yes,no,300234062442620,CALIB,YorkU,unknown,North
2016-05-29T04:59:31Z,1464497971,2016,5,0,150.208,150.125,72.4992,-146.8576,-999.00,0.7,-999.0,no,yes,no,300234062442620,CALIB,YorkU,unknown,North
2016-05-29T06:00:00Z,1464501600,2016,6,0,150.25,150.25,72.502,-146.9052,-999.00,-0.5,-999.0,no,yes,no,300234062442620,CALIB,YorkU,unknown,North
2016-05-29T07:00:28Z,1464505229,2016,7,0,150.292,150.25,72.502,-146.9052,-999.00,-1.5,-999.0,no,yes,no,300234062442620,CALIB,YorkU,unknown,North
2016-05-29T07:59:31Z,1464508771,2016,8,0,150.333,150.25,72.502,-146.9052,-999.00,-2.0,-999.0,no,yes,no,300234062442620,CALIB,YorkU,unknown,North
2016-05-29T09:00:00Z,1464512400,2016,9,0,150.375,150.375,72.5072,-146.954,-999.00,-2.1,-999.0,no,yes,no,300234062442620,CALIB,YorkU,unknown,North
2016-05-29T10:00:28Z,1464516029,2016,10,0,150.417,150.375,72.5072,-146.954,-999.00,-2.1,-999.0,no,yes,no,300234062442620,CALIB,YorkU,unknown,North
2016-05-29T10:59:31Z,1464519571,2016,11,0,150.458,150.375,72.5072,-146.954,-999.00,-2.1,-999.0,no,yes,no,300234062442620,CALIB,YorkU,unknown,North
2016-05-29T12:00:00Z,1464523200,2016,12,0,150.5,150.5,72.5124,-146.9974,-999.00,-2.1,-999.0,no,yes,no,300234062442620,CALIB,YorkU,unknown,North
2016-05-29T13:00:28Z,1464526829,2016,13,0,150.542,150.5,72.5124,-146.9974,-999.00,-1.8,-999.0,no,yes,no,300234062442620,CALIB,YorkU,unknown,North
2016-05-29T13:59:31Z,1464530371,2016,14,0,150.583,150.5,72.5124,-146.9974,-999.00,-1.3,-999.0,no,yes,no,300234062442620,CALIB,YorkU,unknown,North
2016-05-29T15:00:00Z,1464534000,2016,15,0,150.625,150.625,72.5176,-147.0368,-999.00,-0.8,-999.0,no,yes,no,300234062442620,CALIB,YorkU,unknown,North
2016-05-29T16:00:28Z,1464537629,2016,16,0,150.667,150.625,72.5176,-147.0368,-999.00,0.0,-999.0,no,yes,no,300234062442620,CALIB,YorkU,unknown,North
2016-05-29T16:59:31Z,1464541171,2016,17,0,150.708,150.625,72.5176,-147.0368,-999.00,0.6,-999.0,no,yes,no,300234062442620,CALIB,YorkU,unknown,North
2016-05-29T18:00:00Z,1464544800,2016,18,0,150.75,150.75,72.5246,-147.0762,-999.00,1.0,-999.0,no,yes,no,300234062442620,CALIB,YorkU,unknown,North
2016-05-29T19:00:28Z,1464548429,2016,19,0,150.792,150.75,72.5246,-147.0762,-999.00,1.8,-999.0,no,yes,no,300234062442620,CALIB,YorkU,unknown,North
2016-05-29T19:59:31Z,1464551971,2016,20,0,150.833,150.75,72.5246,-147.0762,-999.00,2.4,-999.0,no,yes,no,300234062442620,CALIB,YorkU,unknown,North
2016-05-29T21:00:00Z,1464555600,2016,21,0,150.875,150.875,72.536,-147.122,-999.00,3.1,-999.0,no,yes,no,300234062442620,CALIB,YorkU,unknown,North
2016-05-29T22:00:28Z,1464559229,2016,22,0,150.917,150.875,72.536,-147.122,-999.00,3.3,-999.0,no,yes,no,300234062442620,CALIB,YorkU,unknown,North
2016-05-29T22:59:31Z,1464562771,2016,23,0,150.958,150.875,72.536,-147.122,-999.00,4.1,-999.0,no,yes,no,300234062442620,CALIB,YorkU,unknown,North
2016-05-30T00:00:00Z,1464566400,2016,0,0,151.0,151.0,72.5502,-147.166,-999.00,5.4,-999.0,no,yes,no,300234062442620,CALIB,YorkU,unknown,North
2016-05-30T01:00:28Z,1464570029,2016,1,0,151.042,151.0,72.5502,-147.166,-999.00,4.4,-999.0,no,yes,no,300234062442620,CALIB,YorkU,unknown,North
2016-05-30T01:59:31Z,1464573571,2016,2,0,151.083,151.0,72.5502,-147.166,-999.00,3.1,-999.0,no,yes,no,300234062442620,CALIB,YorkU,unknown,North
2016-05-30T03:00:00Z,1464577200,2016,3,0,151.125,151.125,72.564,-147.1972,-999.00,2.4,-999.0,no,yes,no,300234062442620,CALIB,YorkU,unknown,North
2016-05-30T04:00:28Z,1464580829,2016,4,0,151.167,151.125,72.564,-147.1972,-999.00,2.0,-999.0,no,yes,no,300234062442620,CALIB,YorkU,unknown,North
2016-05-30T04:59:31Z,1464584371,2016,5,0,151.208,151.125,72.564,-147.1972,-999.00,1.5,-999.0,no,yes,no,300234062442620,CALIB,YorkU,unknown,North
2016-05-30T06:00:00Z,1464588000,2016,6,0,151.25,151.25,72.5752,-147.2246,-999.00,1.0,-999.0,no,yes,no,300234062442620,CALIB,YorkU,unknown,North
2016-05-30T07:00:28Z,1464591629,2016,7,0,151.292,151.25,72.5752,-147.2246,-999.00,0.5,-999.0,no,yes,no,300234062442620,CALIB,YorkU,unknown,North
2016-05-30T07:59:31Z,1464595171,2016,8,0,151.333,151.25,72.5752,-147.2246,-999.00,0.0,-999.0,no,yes,no,300234062442620,CALIB,YorkU,unknown,North
2016-05-30T09:00:00Z,1464598800,2016,9,0,151.375,151.375,72.5908,-147.2592,-999.00,-0.3,-999.0,no,yes,no,300234062442620,CALIB,YorkU,unknown,North
2016-05-30T10:00:28Z,1464602429,2016,10,0,151.417,151.375,72.5908,-147.2592,-999.00,-0.6,-999.0,no,yes,no,300234062442620,CALIB,YorkU,unknown,North
2016-05-30T10:59:31Z,1464605971,2016,11,0,151.458,151.375,72.5908,-147.2592,-999.00,-0.7,-999.0,no,yes,no,300234062442620,CALIB,YorkU,unknown,North
2016-05-30T12:00:00Z,1464609600,2016,12,0,151.5,151.5,72.6106,-147.2846,-999.00,-0.8,-999.0,no,yes,no,300234062442620,CALIB,YorkU,unknown,North
2016-05-30T13:00:28Z,1464613229,2016,13,0,151.542,151.5,72.6106,-147.2846,-999.00,-0.8,-999.0,no,yes,no,300234062442620,CALIB,YorkU,unknown,North
2016-05-30T13:59:31Z,1464616771,2016,14,0,151.583,151.5,72.6106,-147.2846,-999.00,-0.4,-999.0,no,yes,no,300234062442620,CALIB,YorkU,unknown,North
2016-05-30T15:00:00Z,1464620400,2016,15,0,151.625,151.625,72.6252,-147.298,-999.00,-0.1,-999.0,no,yes,no,300234062442620,CALIB,YorkU,unknown,North
2016-05-30T16:00:28Z,1464624029,2016,16,0,151.667,151.625,72.6252,-147.298,-999.00,0.3,-999.0,no,yes,no,300234062442620,CALIB,YorkU,unknown,North
2016-05-30T16:59:31Z,1464627571,2016,17,0,151.708,151.625,72.6252,-147.298,-999.00,1.0,-999.0,no,yes,no,300234062442620,CALIB,YorkU,unknown,North
2016-05-30T18:00:00Z,1464631200,2016,18,0,151.75,151.75,72.638,-147.3182,-999.00,1.6,-999.0,no,yes,no,300234062442620,CALIB,YorkU,unknown,North
2016-05-30T19:00:28Z,1464634829,2016,19,0,151.792,151.75,72.638,-147.3182,-999.00,2.4,-999.0,no,yes,no,300234062442620,CALIB,YorkU,unknown,North
2016-05-30T19:59:31Z,1464638371,2016,20,0,151.833,151.75,72.638,-147.3182,-999.00,3.1,-999.0,no,yes,no,300234062442620,CALIB,YorkU,unknown,North
2016-05-30T21:00:00Z,1464642000,2016,21,0,151.875,151.875,72.6542,-147.3516,-999.00,3.5,-999.0,no,yes,no,300234062442620,CALIB,YorkU,unknown,North
2016-05-30T22:00:28Z,1464645629,2016,22,0,151.917,151.875,72.6542,-147.3516,-999.00,4.1,-999.0,no,yes,no,300234062442620,CALIB,YorkU,unknown,North
2016-05-30T22:59:31Z,1464649171,2016,23,0,151.958,151.875,72.6542,-147.3516,-999.00,4.3,-999.0,no,yes,no,300234062442620,CALIB,YorkU,unknown,North
2016-05-31T00:00:00Z,1464652800,2016,0,0,152.0,152.0,72.6724,-147.3766,-999.00,4.2,-999.0,no,yes,no,300234062442620,CALIB,YorkU,unknown,North
2016-05-31T01:00:28Z,1464656429,2016,1,0,152.042,152.0,72.6724,-147.3766,-999.00,4.0,-999.0,no,yes,no,300234062442620,CALIB,YorkU,unknown,North
2016-05-31T01:59:31Z,1464659971,2016,2,0,152.083,152.0,72.6724,-147.3766,-999.00,3.6,-999.0,no,yes,no,300234062442620,CALIB,YorkU,unknown,North
2016-05-31T03:12:57Z,1464664378,2016,3,13,152.134,149.29,72.6828,-147.3846,-999.00,2.6,-999.0,no,yes,no,300234062442620,CALIB,YorkU,unknown,North
2016-05-31T04:00:28Z,1464667229,2016,4,0,152.167,149.323,72.6828,-147.3846,-999.00,2.4,-999.0,no,yes,no,300234062442620,CALIB,YorkU,unknown,North
2016-05-31T04:59:31Z,1464670771,2016,5,0,152.208,149.364,72.6828,-147.3846,-999.00,2.2,-999.0,no,yes,no,300234062442620,CALIB,YorkU,unknown,North
2016-05-31T06:00:00Z,1464674400,2016,6,0,152.25,152.25,72.6852,-147.409,-999.00,1.9,-999.0,no,yes,no,300234062442620,CALIB,YorkU,unknown,North
2016-05-31T07:00:28Z,1464678029,2016,7,0,152.292,152.25,72.6852,-147.409,-999.00,1.3,-999.0,no,yes,no,300234062442620,CALIB,YorkU,unknown,North
2016-05-31T07:59:31Z,1464681571,2016,8,0,152.333,152.25,72.6852,-147.409,-999.00,0.9,-999.0,no,yes,no,300234062442620,CALIB,YorkU,unknown,North
2016-05-31T09:00:00Z,1464685200,2016,9,0,152.375,152.375,72.689,-147.4546,-999.00,0.7,-999.0,no,yes,no,300234062442620,CALIB,YorkU,unknown,North
2016-05-31T10:00:28Z,1464688829,2016,10,0,152.417,152.375,72.689,-147.4546,-999.00,0.7,-999.0,no,yes,no,300234062442620,CALIB,YorkU,unknown,North
2016-05-31T10:59:31Z,1464692371,2016,11,0,152.458,152.375,72.689,-147.4546,-999.00,0.3,-999.0,no,yes,no,300234062442620,CALIB,YorkU,unknown,North